Location: Caltech
(34.1382°N, 118.1253°W)
Time: 00:34:50
(UTC-07:00)

TMSAT-1 - Visible Passes

Search period start: 01 September 2014 00:00
Search period end: 11 September 2014 00:00
Orbit: 808 x 814 km, 98.4° (Epoch: 31 August)

Date Brightness Start Highest point End Pass type
(mag) Time Alt. Az. Time Alt. Az. Time Alt. Az.
01 Sep 11.5 02:47:08 10° ENE 02:49:31 15° E 02:49:31 15° E visible
01 Sep 9.2 04:25:16 10° N 04:30:24 52° WNW 04:30:40 52° W visible
02 Sep 9.0 04:01:47 10° NNE 04:06:56 84° N 04:06:56 84° N visible
03 Sep 9.8 03:38:33 10° NNE 03:43:11 51° ENE 03:43:11 51° ENE visible
03 Sep 10.7 05:19:58 10° NNW 05:23:09 16° WNW 05:24:21 15° W visible
04 Sep 10.7 03:15:36 10° NE 03:19:27 30° E 03:19:27 30° E visible
04 Sep 10.1 04:55:40 10° NNW 05:00:02 27° WNW 05:00:36 26° W visible
05 Sep 11.4 02:53:10 10° NE 02:55:42 17° ENE 02:55:42 17° ENE visible
05 Sep 9.4 04:31:49 10° N 04:36:50 45° WNW 04:36:52 45° WNW visible
06 Sep 9.1 04:08:16 10° N 04:13:07 71° NNW 04:13:07 71° NNW visible
07 Sep 9.7 03:44:57 10° NNE 03:49:23 55° ENE 03:49:23 55° ENE visible
07 Sep 10.8 05:26:54 10° NW 05:29:32 14° WNW 05:30:32 13° WNW visible
08 Sep 10.6 03:21:55 10° NNE 03:25:38 33° ENE 03:25:38 33° ENE visible
08 Sep 10.3 05:02:21 10° NNW 05:06:27 23° WNW 05:06:47 23° WNW visible
09 Sep 11.4 02:59:17 10° NE 03:01:53 20° ENE 03:01:53 20° ENE visible
09 Sep 9.7 04:38:24 10° N 04:43:03 38° WNW 04:43:03 38° WNW visible
10 Sep 11.9 02:37:40 10° ENE 02:38:08 11° ENE 02:38:08 11° ENE visible
10 Sep 9.3 04:14:46 10° N 04:19:18 58° NNW 04:19:18 58° NNW visible
